{"data":{"norad_id":65457,"epoch":"2026-05-25T02:34:27.791040Z","epoch_age_seconds":66050,"freshness":"FRESH","line1":"1 65457U 25194Z   26145.10726610  .00002097  00000+0  14932-3 0  9998","line2":"2 65457  97.4523 359.2938 0002223  77.3735 282.7741 15.05655281 41148","mean_motion":15.05655281,"eccentricity":0.0002223,"inclination_deg":97.4523,"raan_deg":359.2938,"arg_perigee_deg":77.3735,"mean_anomaly_deg":282.7741,"bstar":0.00014932,"rev_number":4114,"period_min":95.639421464627,"perigee_km":547.9549425589,"apogee_km":551.03496772615,"semimajor_km":6927.6319551425,"source":"CELESTRAK","updated_at":"2026-05-25T13:38:20.811036Z"}}